NOAA 16 DEB

Satellite information

Favourite Embed

Satellite Type and Status

DEBRISIN ORBIT

Key statistics

Satellite NOAA 16 DEB at a glance.

Uptime

8995

Days in orbit

Revolutions

≈ 14.6

Per day

Orbit

SSO

Sun Synchronous Orbit

Inclination

98.7

Latest

Satellite identification and parameters

Extended collection of information and parameters for NOAA 16 DEB.

Object identification

Identified? True

Debris? True

Object name: NOAA 16 DEB

International designator: 2000-055QH

Object number (NORAD): 42341

Object ID (CCSDS): 42341

Country: UNITED STATES OF AMERICA (US)

Current information (Y/N): Y

RCS size: SMALL

Orbital parameters

Period: 98.69 minutes

Inclination: 98.7161 deg

SMA: 7074.174 km

Apoapsis: 721.545 km

Periapsis: 670.532 km

RAAN: 245.4016 deg

Eccentricy: 0.0036056

Argument of periapsis: 185.3886 deg

Mean anomaly: 174.6929 deg

Mean motion: 14.59113867 rev/day

Mean motion (dot): 0.00021687 rev/day2

B* drag term: 0.0045636 1/REarth

Two-line elements (TLE)

Creation date: May 4, 2025, 5:21 p.m.

Reference frame: TEME

Reference center: EARTH

Epoch: May 4, 2025, 1:37 p.m. UTC

TLE line 0: 0 NOAA 16 DEB

TLE line 1: 1 42341U 00055QH 25124.56803947 .00021687 00000-0 45636-2 0 9990

TLE line 2: 2 42341 98.7161 245.4016 0036056 185.3886 174.6929 14.59113867480857

Live tracking on map

Real-time ground track for satellite NOAA 16 DEB.

In-orbit conjunctions

A list of the most updated potential collisions computed for object NOAA 16 DEB.

Target Orbit TCA Probability of collision Miss distance Type
START 1 LEO 2025-03-15 06:10:13 0.0001970093 134.0 (m) PAYLOAD
FUSE 1 LEO 2024-11-25 08:45:11 0.0001279563 361.0 (m) PAYLOAD
CZ-2D DEB SSO 2024-11-11 13:33:01 0.0001244471 87.0 (m) DEBRIS

Associated space launch

The NOAA K, L and M POES satellites begin the fifth generation of improved environmental monitoring in support of NOAA missions. The instrument payload has significant improvements and additions/deletions. The instrument changes have effected the spacecraft subsystems and data formats.

NOAA 16 DEB was lifted into orbit during the mission ‘Titan II SLV | NOAA 16’, on board a Titan II SLV space rocket.

The launch took place on Sept. 21, 2000, 10:22 a.m. from Space Launch Complex 4W.

For more information about the launch, click the button.

Launch to space Titan II SLV | NOAA 16
Titan II SLV | NOAA 16

Agency: N/A

Status: Launch Successful

Launch date: Sept. 21, 2000, 10:22 a.m. UTC

Rocket: Titan II SLV

Launch pad: Space Launch Complex 4W

Location: Vandenberg SFB, CA, USA

...

Latest news about this satellite

There are no fresh news available about this satellite. Check back as we update our databases every day.


Newsletter sign-up

Weekly statistics, charts and insights to help you stay on top of the space industry.